Regional Weather Roundup
Issued by NWS Newport/Morehead, NC

Current Version | Previous Version | Graphics & Text | Print | Product List | Glossary Off
Versions: 1 2 3 4 5 6 7 8 9 10 11 12 13 14 15 16 17 18 19 20 21 22 23 24 25 26 27 28 29 30 31 32 33 34 35 36 37 38 39 40 41 42 43 44 45 46 47 48 49 50
000 ASUS42 KMHX 311213 RWRMHX WEATHER ROUNDUP FOR EASTERN NORTH CAROLINA NATIONAL WEATHER SERVICE NEWPORT/MOREHEAD CITY NC 800 AM EDT FRI JUL 31 2015 NOTE: "FAIR" INDICATES FEW OR NO CLOUDS BELOW 12,000 FEET WITH NO SIGNIFICANT WEATHER AND/OR OBSTRUCTIONS TO VISIBILITY NCZ015>017-031-032-045>047-102-103-311300- NORTH COAST CITY SKY/WX TMP DP RH WIND PRES REMARKS EDENTON N/A 75 72 90 NE6 29.91R ELIZABETH CITY CLOUDY 75 73 93 N12 29.91R KITTY HAWK PTSUNNY 81 75 81 N6 29.89R MANTEO MOSUNNY 81 77 86 NW5 29.90R $$ NCZ045>047-081-094-103-104-311300- CENTRAL COAST CITY SKY/WX TMP DP RH WIND PRES REMARKS FRISCO SUNNY 83 76 79 CALM 29.88R SWANQUARTER N/A 82 N/A N/A VRB1G7 29.85S $$ NCZ095-097-098-100-101-311300- SOUTHERN COAST CITY SKY/WX TMP DP RH WIND PRES REMARKS BEAUFORT MOSUNNY 81 79 94 NW7 29.89R CEDAR ISLAND N/A 82 N/A N/A NW7G13 29.91S JACKSONVILLE PTSUNNY 78 75 90 CALM 29.90R PINEY ISLAND SUNNY N/A N/A N/A MISG 29.89R WILMINGTON CLOUDY 79 75 87 CALM 29.90R $$ NCZ011>013-027>030-043-044-078>080-089-090>093-098-311300- COASTAL PLAIN CITY SKY/WX TMP DP RH WIND PRES REMARKS AHOSKIE SUNNY 74 70 86 N5 29.93R CLINTON SUNNY 78 74 88 N5 29.93R ELIZABETHTOWN CLOUDY 78 71 79 CALM 29.93R GOLDSBORO NOT AVBL GREENVILLE SUNNY 79 73 83 NE9 29.94R HAVELOCK MOSUNNY 82 77 84 N3 29.90R KENANSVILLE SUNNY N/A N/A N/A N7 29.92S KINSTON MOSUNNY 79 75 89 N9 29.92R NEW BERN PTSUNNY 79 76 90 N3 29.91R RICHLANDS MOSUNNY 79 72 78 CALM 29.91R ROCKY MOUNT SUNNY 78 73 84 N9 29.94R WASHINGTON CLOUDY 77 76 95 N5 29.90S WHITEVILLE MOSUNNY 78 71 78 N3 29.92R $$ AMZ130-135-150-152-154-156-158-170-250-252-270-ANZ085-086-088-633-658-670-311300- MARINE OBSERVATIONS STATION/POSITION TIME TEMP WIND PRES WAVE SWELL AIR SEA DIR/SP/G HT/PER HT/PER (UTC) (F) (DEG/KT/KT) (MB) (FT/S) (FT/S) CHESAPEAKE LIGHT 1200 78 360/ 8/ 9 1013.4 64 E VA BEACH 1150 78 81 30/ 14/ 17 1012.1 4/ 8 3/ 8 DUCK 1100 72 63 350/ 13/ 14 1011.2 2 E DUCK 1111 71 N/A 2/ 8 OREGON INLET 1100 80 83 360/ 1/ 3 1011.6 13E OREGON INLT 1200 81 N/A 4/ 8 HATTERAS CG 1100 81 82 330/ 3/ 3 1011.2 DIAMOND BUOY 1150 82 85 10/ 6/ 8 1011.6 4/ 8 3/ 8 CAPE LOOKOUT 1200 81 320/ 7/ 8 1011.8 BEAUFORT LAB 1100 80 82 320/ 4/ 7 1011.1 30 SE NEW RVR IN NOT AVBL 27 SE WRIGHTSVLE 1100 78 82 330/ 6/ 8 N/A 5 SE WRIGHTSVLE 1108 81 82 340/ 4/ 8 1012.2 225 S CAPE HAT 1150 82 81 220/ 19/ 23 1014.4 10/ 9 41 SE CHARLESTON 1150 83 84 230/ 19/ 23 1011.9 3/ 5 2/ 8 $$

USA.gov is the U.S. government's official web portal to all federal, state and local government web resources and services.